Location: NJAA Observatory
(40.6819°N, 74.8979°W)
Time: 00:45:10
(UTC-04:00)

Vanguard 1 - All Passes

Search period start: 27 April 2018 00:00
Search period end: 07 May 2018 00:00
Orbit: 650 x 3833 km, 34.2° (Epoch: 26 April)

Date Brightness Start Highest point End Pass type
(mag) Time Alt. Az. Time Alt. Az. Time Alt. Az.
27 Apr - 00:10:56 10° WSW 00:15:03 40° S 00:20:00 10° ESE night (unlit)
27 Apr - 02:30:14 10° WSW 02:34:49 33° SSW 02:41:38 10° SE visible
27 Apr - 04:51:08 10° WSW 04:55:34 16° SSW 05:01:29 10° S visible
27 Apr - 22:12:22 10° SW 22:16:26 26° SSE 22:20:08 10° ESE visible
28 Apr - 00:31:44 10° WSW 00:35:52 40° S 00:40:58 10° ESE night (unlit)
28 Apr - 02:51:17 10° WSW 02:55:44 27° SSW 03:02:10 10° SE visible
28 Apr - 05:14:28 10° SW 05:16:40 11° SSW 05:19:08 10° S visible
28 Apr - 20:14:39 10° S 20:17:29 13° SSE 20:19:56 10° SE visible
28 Apr - 22:32:55 10° SW 22:37:13 32° S 22:41:12 10° ESE visible
29 Apr - 00:52:35 10° WSW 00:56:41 37° S 01:01:52 10° ESE night (unlit)
29 Apr - 03:12:32 10° WSW 03:16:40 21° SSW 03:22:22 10° SSE visible
29 Apr - 20:34:08 10° SSW 20:38:22 19° SSE 20:41:46 10° ESE visible
29 Apr - 22:53:39 10° WSW 22:58:00 36° S 23:02:09 10° ESE visible
30 Apr - 01:13:30 10° WSW 01:17:31 32° S 01:22:39 10° SE night (unlit)
30 Apr - 03:34:14 10° SW 03:37:38 15° SSW 03:41:57 10° SSE visible
30 Apr - 20:54:18 10° SW 20:59:14 25° SSE 21:03:03 10° ESE visible
30 Apr - 23:14:28 10° WSW 23:18:49 38° S 23:23:04 10° ESE visible
01 May - 01:34:30 10° WSW 01:38:21 26° SSW 01:43:15 10° SE night (unlit)
01 May - 03:57:49 10° SSW 03:58:38 10° SSW 03:59:30 10° SSW visible
01 May - 18:55:57 10° S 18:59:50 14° SSE 19:02:58 10° SE daylight
01 May - 21:14:49 10° SW 21:20:05 31° S 21:24:06 10° ESE visible
01 May - 23:35:22 10° WSW 23:39:36 37° S 23:43:54 10° ESE visible
02 May - 01:55:42 10° WSW 01:59:12 20° SSW 02:03:32 10° SSE night (unlit)
02 May - 19:15:13 10° SSW 19:20:49 19° SSE 19:24:55 10° ESE daylight
02 May - 21:35:33 10° WSW 21:40:55 36° S 21:45:03 10° ESE visible
02 May - 23:56:19 10° WSW 00:00:25 34° S 00:04:40 10° SE visible
03 May - 02:17:18 10° SW 02:20:03 15° SSW 02:23:18 10° SSE night (unlit)
03 May - 19:35:14 10° SW 19:41:46 25° SSE 19:46:17 10° ESE daylight
03 May - 21:56:25 10° WSW 22:01:44 40° S 22:05:54 10° ESE visible
04 May - 00:17:21 10° WSW 00:21:11 28° SSW 00:25:17 10° SE visible
04 May - 17:36:22 10° S 17:41:49 15° SSE 17:46:01 10° SE daylight
04 May - 19:55:41 10° SW 20:02:42 32° SSE 20:07:24 10° ESE daylight
04 May - 22:17:23 10° WSW 22:22:34 41° S 22:26:43 10° ESE visible
05 May - 00:38:30 10° WSW 00:41:57 22° SSW 00:45:40 10° SSE night (unlit)
05 May - 17:55:23 10° SSW 18:02:54 21° SSE 18:08:07 10° ESE daylight
05 May - 20:16:25 10° SW 20:23:37 38° S 20:28:20 10° ESE visible
05 May - 22:38:24 10° WSW 22:43:21 38° S 22:47:28 10° ESE visible
06 May - 00:59:56 10° WSW 01:02:42 16° SSW 01:05:41 10° SSE night (unlit)
06 May - 16:01:24 10° SSE 16:02:05 10° SSE 16:02:45 10° SSE daylight
06 May - 18:15:12 10° SSW 18:23:57 27° SSE 18:29:35 10° ESE daylight
06 May - 20:37:20 10° WSW 20:44:30 43° S 20:49:12 10° ESE visible
06 May - 22:59:28 10° WSW 23:04:08 33° SSW 23:08:07 10° SE visible
